Flag for French Polynesia Weather past 2 weeks in Gambier Islands, French Polynesia

Now
71 °F

Mild.


Feels Like: 71 °F
Forecast: 71 / 77 °F
Wind: 3 mph from Northwest

Location: Rikitea

Current Time: Aug 2, 2015 at 5:48:33 PM

Latest Report: Aug 2, 2015 at 5:00 PM


Visibility: N/A

Pressure: 29.74 "Hg

Humidity: 83%

Dew point: 66 °F

Location of Gambier IslandsLocation

Historic Weather in Gambier Islands — Graph

°F

Gambier Islands temperature yesterday

Maximum temperature yesterday: 75 °F (at 2:00 PM)
Minimum temperature yesterday: 70 °F (at 12:00 AM)
Average temperature yesterday: 72 °F

Past Weeks' High & Low Weather Summary

 TemperatureHumidityPressure
High78 °F (Jul 26, 12:00 PM)100% (Jul 18, 4:00 PM)30.22 "Hg (Jul 18, 4:00 PM)
Low67 °F (Jul 23, 4:00 AM)64% (Jul 31, 11:00 AM)29.72 "Hg (Aug 1, 4:00 PM)
Average72 °F88%29.99 "Hg
* Reported Jul 18 4:00 PM — Aug 2 4:00 PM, Gambier Islands, Weather by CustomWeather, © 2015

Note: Actual official high and low records may vary slightly from our data, if they occured in-between our weather recording intervals... More about our weather records

Advertising

Gambier Islands weather history for previous 24 hours

 ConditionsComfort  
Time TempWeatherWind HumidityBarometerVisibility
4:00 PM
Sun, Aug 2
72 °FPartly sunny.6 mph82%29.73 "Hg19 mi
3:00 PM74 °FScattered clouds.6 mph80%29.72 "Hg19 mi
2:00 PM73 °FMild.7 mph86%29.75 "HgN/A
1:00 PM73 °FScattered clouds.3 mph79%29.76 "Hg19 mi
11:00 AM74 °FMild.5 mph81%29.80 "HgN/A
10:00 AM72 °FPartly sunny.6 mph91%29.80 "Hg19 mi
9:00 AM71 °FPartly sunny.6 mph91%29.81 "Hg19 mi
8:00 AM69 °FPartly sunny.3 mph100%29.78 "Hg2 mi
7:00 AM68 °FMild.3 mph100%29.76 "HgN/A
6:00 AM68 °FScattered clouds.5 mph98%29.74 "Hg11 mi
5:00 AM69 °FMild.2 mph97%29.73 "HgN/A
4:00 AM69 °FMild.5 mph96%29.74 "HgN/A
3:00 AM69 °FMild.5 mph98%29.74 "HgN/A
2:00 AM69 °FMild.6 mph100%29.75 "HgN/A
1:00 AM70 °FMild.6 mph100%29.77 "HgN/A
12:00 AM70 °FMild.8 mph97%29.77 "HgN/A
11:00 PM
Sat, Aug 1
73 °FMild.8 mph83%29.76 "HgN/A
10:00 PM72 °FMild.8 mph90%29.76 "HgN/A
9:00 PM74 °FMild.6 mph82%29.76 "HgN/A
8:00 PM73 °FMild.6 mph82%29.75 "HgN/A
7:00 PM73 °FMild.6 mph84%29.74 "HgN/A
5:00 PM73 °FOvercast.5 mph84%29.73 "Hg19 mi
Weather by CustomWeather, © 2015

See weather overviewHow to use our weather pages